Tracking 31027 objects as of 19-Jul-2025
HD Live streaming from Space Station
objects crossing your sky now

CZ-2D R/B

Track CZ-2D R/B now!
10-day predictions


NORAD ID: 53878
Int'l Code: 2022-115B
Perigee: 581.5 km
Apogee: 747.9 km
Inclination: 98.5 °
Period: 97.9 minutes
Semi major axis: 7035 km
RCS: Unknown
Launch date: September 20, 2022
Source: People's Republic of China (PRC)
Launch site: Jiuquan Satellite Launch Center, China (JSC)

Note: This is a ROCKET BODY
Your satellite tracking list
Your tracking list is empty




NASA's NSSDC Master Catalog

Two Line Element Set (TLE):
1 53878U 22115B   25199.42011149  .00000631  00000-0  10101-3 0  9996
2 53878  98.4563 258.0859 0118262  45.7942 315.2904 14.71110360151472
Source of the keplerian elements: AFSPC